Temp
61 56 51 54 56 56 56 53 51 55 60 57 54 55 59 60 58 59 59 60 60 62 66 66 67 66 65 64 62 62 62 61 60 60 60 60 60 61 62 62 63 63 63 64
56 52 60 62 61 58 56 52 50 56 60 57 54 54 56 58 59 60 60 59 60 62 64 66 65 65 64 63 62 61 61 60 60 59 59 60 60 60 60 60 61 62 62 62
53 58 64 64 59 58 52 52 51 52 56 56 53 51 52 56 56 59 60 62 62 62 62 64 65 64 63 61 62 62 60 60 60 60 59 59 58 58 58 59 59 61 62 62
54 63 63 59 59 58 49 58 57 55 51 45 51 41 47 50 53 54 56 58 60 63 64 63 64 63 62 63 63 62 60 60 61 59 58 57 55 54 55 55 57 58 59 59
56 57 58 57 59 60 55 59 54 53 46 43 45 41 46 49 49 50 55 58 60 62 63 63 64 63 63 63 60 59 59 58 57 57 56 55 53 53 54 54 54 55 56 57
58 62 62 62 62 60 61 55 49 45 42 36 42 42 42 45 50 52 56 58 61 62 64 64 64 62 61 60 58 58 57 56 56 56 55 53 51 51 52 53 52 53 55 55
54 55 60 63 57 56 53 45 34 35 33 35 44 41 45 52 56 58 58 59 60 61 61 61 60 59 58 57 56 58 56 55 54 53 53 52 51 51 49 50 50 49 51 51
47 46 58 62 58 53 48 47 33 28 28 36 44 38 46 55 58 60 61 60 60 58 58 58 57 56 56 56 55 55 53 52 52 52 51 51 50 49 49 48 48 48 50 52
46 49 59 62 60 59 49 45 47 37 35 33 38 45 53 54 55 57 57 58 57 58 57 56 56 55 54 54 52 51 51 51 51 51 50 48 48 46 46 48 50 50 51 52
54 45 56 59 60 57 53 55 43 38 32 31 36 39 41 49 53 55 55 54 57 56 55 55 54 54 53 52 52 51 50 49 49 47 46 46 46 48 49 49 47 48 49 50
52 49 49 54 52 51 49 45 43 42 36 28 26 37 48 52 54 54 54 55 55 54 54 54 53 53 52 51 50 49 48 47 46 45 46 47 47 48 48 47 47 47 48 48
52 46 43 49 53 56 52 50 46 36 37 31 30 36 52 52 52 52 53 55 54 53 53 53 52 51 50 49 48 47 46 44 45 47 46 46 46 46 46 46 47 48 47 48
54 42 38 44 48 51 48 49 46 41 38 34 31 38 54 53 51 53 52 53 53 53 52 51 50 49 48 47 46 45 43 45 46 46 45 44 44 45 44 45 47 47 47 47
57 44 44 38 46 48 46 50 49 44 35 36 37 43 49 50 50 51 51 52 52 52 51 50 48 47 46 45 43 43 44 45 45 44 43 42 43 44 45 46 46 46 46 46
53 46 47 48 52 52 50 50 49 45 44 40 44 44 48 48 50 50 52 53 53 51 51 49 47 44 43 41 42 43 44 44 44 43 42 42 44 45 45 45 45 45 45 45
48 42 46 46 52 52 49 51 50 49 48 46 46 45 48 49 52 52 53 53 51 50 49 49 46 44 40 41 41 42 42 42 43 42 42 43 43 43 43 44 44 44 44 44
49 45 43 40 49 48 41 49 50 48 48 47 43 47 50 49 51 51 51 51 49 48 47 45 42 40 40 41 42 40 41 43 42 42 41 41 42 42 42 43 43 43 42 43
44 44 43 39 44 35 47 54 55 49 48 48 49 49 51 50 47 47 48 48 47 46 44 42 39 39 41 42 42 42 42 41 41 40 39 40 41 41 42 42 42 42 43 42
51 47 41 37 36 45 48 51 49 48 45 49 50 51 51 52 51 46 48 47 45 43 42 39 40 42 41 41 41 41 40 40 39 38 39 40 40 40 41 41 41 42 42 42
53 49 47 36 36 33 45 55 57 53 38 53 53 51 50 50 44 45 46 46 43 42 40 39 42 42 41 40 41 39 39 39 37 38 39 40 41 40 40 41 42 42 42 41
42 43 40 36 35 41 50 56 56 41 43 52 53 51 49 47 47 45 45 43 42 40 39 42 42 41 41 41 40 39 39 37 38 40 40 41 41 40 41 41 42 42 41 41
41 39 38 39 34 33 56 55 49 48 48 52 51 51 49 45 45 44 44 42 40 38 41 42 41 41 42 42 41 39 38 39 40 40 40 40 41 41 41 41 41 42 41 41
40 45 42 42 42 49 54 51 51 51 53 52 52 51 48 46 45 44 42 40 38 40 41 42 42 41 42 42 40 38 39 41 40 40 40 40 41 41 42 40 40 39 41 42
46 51 44 45 51 50 53 53 55 55 54 54 53 50 49 46 46 43 41 39 38 40 41 41 42 40 39 41 41 40 41 41 41 40 40 41 41 41 41 41 41 39 38 42
47 51 49 48 51 52 53 55 56 54 55 53 53 52 49 48 44 43 40 38 40 41 40 40 40 37 37 38 39 40 41 41 40 40 40 40 40 40 40 41 40 40 40 39
47 46 45 44 53 52 53 56 56 53 52 53 52 51 50 48 45 43 39 38 40 41 39 38 38 38 38 39 40 42 43 42 41 40 40 39 39 39 39 39 40 42 41 41
MSLP
1010.24 1011.07 1011.35 1011.32 1011.33 1011.34 1011.49 1011.56 1011.49 1011.24 1011.22 1011.60 1012.04 1012.40 1013.09 1013.83 1014.63 1015.15 1015.67 1015.94 1016.14 1016.00 1015.27 1015.29 1015.54 1015.81 1015.89 1015.87 1015.92 1015.79 1015.73 1015.57 1015.70 1015.83 1016.02 1016.01 1015.75 1015.42 1015.00 1014.64 1014.41 1014.26 1014.03 1013.72
1010.75 1010.90 1010.42 1010.60 1010.98 1011.20 1011.26 1011.49 1011.72 1011.61 1011.53 1011.81 1012.36 1012.79 1013.25 1013.91 1014.33 1014.58 1014.96 1015.57 1015.71 1015.74 1015.40 1015.30 1015.38 1015.48 1015.63 1015.56 1015.59 1015.73 1015.53 1015.54 1015.60 1015.79 1015.71 1015.71 1015.58 1015.25 1015.00 1014.56 1014.20 1013.85 1013.66 1013.49
1010.38 1010.12 1009.92 1010.17 1010.71 1011.03 1011.49 1011.65 1011.92 1012.15 1012.20 1012.47 1012.91 1013.65 1013.87 1014.12 1014.38 1014.39 1014.51 1014.72 1015.21 1015.30 1015.26 1015.17 1015.08 1015.12 1015.10 1015.30 1015.37 1015.46 1015.44 1015.41 1015.52 1015.64 1015.80 1015.70 1015.51 1015.22 1014.94 1014.42 1014.05 1013.65 1013.38 1013.00
1010.16 1009.70 1009.69 1009.96 1010.43 1010.94 1011.60 1011.75 1012.24 1012.74 1013.42 1014.04 1014.22 1014.99 1014.65 1014.74 1014.59 1014.43 1014.52 1014.57 1014.84 1014.92 1014.90 1014.90 1014.79 1014.75 1015.06 1015.15 1015.15 1015.04 1015.31 1015.63 1015.75 1015.85 1016.00 1016.14 1016.10 1015.90 1015.18 1014.73 1014.09 1013.52 1013.04 1012.42
1010.02 1009.73 1009.64 1009.89 1010.21 1010.84 1011.77 1012.18 1013.25 1013.82 1014.67 1015.19 1015.56 1015.98 1015.05 1015.08 1014.74 1014.60 1014.58 1014.69 1014.68 1014.66 1014.62 1014.60 1014.67 1014.80 1014.73 1014.95 1015.28 1015.38 1015.61 1015.88 1016.12 1016.20 1016.24 1016.30 1016.17 1015.97 1015.36 1014.75 1013.90 1013.21 1012.66 1012.13
1009.98 1009.66 1009.54 1009.68 1010.27 1010.95 1012.04 1013.21 1014.71 1015.71 1016.34 1016.76 1016.35 1016.53 1015.84 1015.28 1014.52 1014.48 1014.49 1014.49 1014.50 1014.48 1014.44 1014.35 1014.54 1014.52 1015.08 1015.42 1015.78 1015.94 1016.02 1016.44 1016.44 1016.32 1016.40 1016.48 1016.35 1015.85 1015.13 1014.36 1013.66 1012.92 1012.32 1011.82
1010.50 1010.05 1009.69 1009.68 1010.63 1011.66 1012.74 1014.53 1016.38 1017.58 1018.24 1017.92 1016.88 1016.86 1015.28 1014.36 1014.02 1013.86 1014.04 1014.25 1014.30 1014.28 1014.32 1014.38 1014.55 1015.19 1015.69 1016.21 1016.36 1016.47 1016.68 1016.77 1016.75 1016.75 1016.64 1016.52 1016.26 1015.82 1015.20 1014.43 1013.60 1012.84 1012.10 1011.52
1011.07 1010.76 1010.02 1009.90 1010.47 1011.76 1013.22 1014.67 1016.64 1018.14 1019.02 1018.60 1017.50 1016.48 1014.63 1013.98 1013.58 1013.56 1013.68 1013.87 1014.08 1014.12 1014.32 1014.87 1015.39 1015.80 1016.43 1016.77 1016.94 1017.14 1017.13 1017.09 1017.12 1016.96 1016.76 1016.49 1016.12 1015.65 1015.08 1014.31 1013.57 1012.72 1011.77 1010.84
1011.12 1010.84 1010.12 1010.02 1010.47 1011.37 1013.56 1014.92 1016.18 1018.06 1019.64 1019.41 1017.85 1016.28 1014.62 1014.02 1013.84 1013.73 1013.80 1013.97 1014.21 1014.33 1014.87 1015.58 1016.05 1016.61 1017.00 1017.21 1017.52 1017.70 1017.71 1017.58 1017.40 1017.16 1016.86 1016.45 1015.93 1015.47 1014.76 1013.82 1012.92 1012.02 1011.14 1010.36
1010.72 1011.09 1010.66 1010.48 1010.66 1011.89 1012.55 1014.25 1016.25 1018.08 1019.72 1020.00 1018.54 1017.16 1015.67 1014.62 1014.16 1013.96 1014.10 1014.25 1014.47 1014.80 1015.61 1016.23 1016.82 1017.17 1017.54 1017.90 1018.16 1018.21 1018.09 1017.99 1017.72 1017.43 1017.01 1016.31 1015.66 1014.89 1014.06 1013.38 1012.57 1011.70 1010.74 1009.91
1010.87 1011.35 1011.72 1011.39 1011.29 1011.90 1013.30 1014.40 1016.19 1017.75 1019.08 1019.81 1019.13 1017.41 1014.66 1014.16 1013.70 1013.84 1013.86 1014.62 1014.87 1015.54 1016.16 1016.79 1017.32 1017.74 1018.15 1018.30 1018.24 1018.28 1018.26 1018.10 1017.79 1017.50 1016.79 1016.08 1015.33 1014.49 1013.88 1013.12 1012.18 1011.22 1010.21 1009.32
1010.78 1011.72 1012.46 1012.07 1012.00 1011.88 1012.44 1013.67 1015.27 1017.50 1019.06 1019.47 1018.86 1016.38 1014.46 1014.04 1013.92 1013.99 1014.42 1014.71 1015.32 1015.92 1016.72 1017.42 1017.87 1018.22 1018.22 1018.22 1018.48 1018.57 1018.46 1018.33 1017.98 1017.34 1016.74 1016.00 1015.22 1014.45 1013.54 1012.63 1011.70 1010.66 1009.60 1008.65
1010.52 1012.00 1012.76 1012.84 1012.90 1012.41 1012.62 1013.56 1014.75 1016.26 1017.44 1018.30 1018.33 1015.99 1014.41 1014.01 1014.08 1014.34 1014.73 1015.27 1015.98 1016.70 1017.40 1017.94 1018.10 1018.38 1018.66 1019.04 1019.08 1018.87 1018.78 1018.40 1017.87 1017.36 1016.63 1015.85 1015.02 1014.15 1013.24 1012.22 1011.12 1010.12 1009.18 1008.22
1009.91 1011.89 1012.09 1012.34 1012.11 1012.03 1012.72 1013.23 1014.14 1015.33 1016.82 1017.25 1016.79 1015.68 1014.61 1014.49 1014.74 1014.87 1015.23 1015.87 1016.55 1017.16 1017.66 1018.21 1018.74 1019.09 1019.61 1019.75 1019.52 1019.33 1018.91 1018.41 1017.92 1017.26 1016.54 1015.74 1014.84 1013.91 1012.94 1011.87 1010.88 1009.98 1009.03 1007.97
1010.46 1011.74 1012.20 1012.16 1011.90 1011.81 1012.24 1012.90 1013.71 1014.60 1015.26 1015.92 1015.61 1015.60 1014.81 1014.78 1015.06 1015.36 1015.64 1016.26 1016.94 1017.60 1018.28 1018.94 1019.41 1020.02 1020.29 1020.06 1019.82 1019.43 1018.99 1018.52 1017.90 1017.20 1016.46 1015.58 1014.74 1013.87 1012.84 1011.84 1010.87 1009.93 1008.93 1007.95
1011.14 1012.10 1012.36 1012.72 1012.28 1012.03 1012.32 1012.54 1013.14 1013.89 1014.35 1014.76 1015.02 1015.08 1014.94 1015.10 1015.35 1015.75 1016.03 1016.68 1017.55 1018.33 1019.12 1019.82 1020.34 1020.48 1020.45 1020.34 1020.13 1019.73 1019.19 1018.52 1017.95 1017.20 1016.46 1015.68 1014.93 1014.00 1013.00 1011.98 1010.88 1009.91 1008.92 1007.94
1011.37 1012.08 1012.80 1013.16 1012.83 1012.78 1012.80 1012.06 1012.36 1013.12 1013.56 1014.10 1014.74 1014.51 1015.08 1015.68 1015.96 1016.35 1016.78 1017.42 1018.50 1019.31 1020.03 1020.54 1020.66 1020.92 1020.95 1020.86 1020.53 1019.92 1019.25 1018.60 1018.00 1017.31 1016.68 1015.90 1015.05 1014.12 1013.14 1012.15 1011.14 1010.14 1009.22 1008.29
1012.03 1012.16 1012.90 1013.73 1013.69 1013.35 1012.02 1011.54 1011.65 1012.76 1013.72 1013.98 1014.25 1014.76 1015.28 1015.75 1016.64 1017.22 1017.66 1018.34 1019.25 1019.89 1020.52 1020.96 1021.40 1021.42 1021.43 1021.17 1020.64 1020.14 1019.52 1018.89 1018.16 1017.49 1016.90 1016.14 1015.26 1014.35 1013.41 1012.50 1011.59 1010.65 1009.76 1008.79
1012.06 1012.23 1013.37 1014.00 1014.02 1013.14 1012.45 1012.10 1012.19 1012.43 1013.88 1014.06 1014.30 1015.10 1015.60 1016.17 1016.77 1018.20 1018.65 1019.20 1020.09 1020.79 1021.32 1021.81 1021.95 1021.90 1021.69 1021.30 1020.88 1020.33 1019.75 1019.10 1018.45 1017.72 1017.12 1016.38 1015.51 1014.66 1013.89 1012.98 1012.12 1011.26 1010.37 1009.43
1012.42 1012.51 1012.81 1014.70 1014.08 1013.16 1011.91 1011.42 1011.67 1012.27 1013.87 1013.86 1014.38 1015.18 1015.81 1016.57 1017.78 1018.74 1019.46 1020.17 1020.84 1021.40 1021.88 1022.19 1022.13 1022.10 1021.91 1021.58 1020.98 1020.40 1019.76 1019.20 1018.71 1018.14 1017.47 1016.72 1015.93 1015.22 1014.49 1013.69 1012.81 1012.02 1011.19 1010.34
1013.95 1013.88 1013.81 1014.12 1013.73 1012.93 1011.72 1011.58 1011.76 1012.82 1013.58 1013.50 1014.25 1014.97 1015.93 1017.10 1017.93 1018.80 1019.93 1020.76 1021.35 1021.99 1022.38 1022.38 1022.33 1022.28 1022.02 1021.54 1021.01 1020.46 1020.09 1019.61 1019.23 1018.44 1017.78 1016.99 1016.33 1015.80 1015.06 1014.32 1013.49 1012.59 1011.82 1011.03
1014.39 1014.46 1014.48 1014.25 1013.62 1012.90 1011.36 1011.96 1012.08 1012.24 1012.87 1013.32 1014.33 1015.08 1016.26 1017.35 1018.54 1019.48 1020.39 1021.28 1021.97 1022.51 1022.64 1022.59 1022.54 1022.33 1021.95 1021.58 1021.13 1020.78 1020.44 1020.15 1019.51 1018.77 1018.12 1017.48 1016.93 1016.29 1015.55 1014.90 1014.25 1013.41 1012.69 1011.82
1014.42 1013.92 1014.17 1014.32 1013.35 1012.25 1011.71 1011.48 1011.49 1011.82 1012.48 1013.79 1014.41 1015.32 1016.42 1017.76 1018.95 1019.92 1021.00 1021.82 1022.48 1022.81 1022.85 1022.86 1022.67 1022.46 1022.16 1021.93 1021.70 1021.29 1020.98 1020.49 1019.93 1019.26 1018.71 1018.06 1017.32 1016.67 1016.16 1015.62 1015.00 1014.21 1013.65 1012.83
1013.78 1013.46 1013.77 1013.84 1012.79 1012.53 1012.01 1011.72 1011.85 1012.19 1012.75 1013.68 1014.36 1015.38 1016.54 1017.83 1019.16 1020.28 1021.23 1022.12 1022.71 1022.96 1022.96 1022.97 1022.86 1022.69 1022.60 1022.36 1022.08 1021.81 1021.43 1021.00 1020.38 1019.79 1019.08 1018.42 1017.87 1017.18 1016.69 1016.24 1015.76 1015.17 1014.62 1013.97
1012.88 1012.54 1012.85 1012.85 1012.58 1012.24 1012.08 1012.04 1012.26 1012.76 1013.20 1013.97 1014.98 1015.71 1016.73 1017.86 1019.44 1020.38 1021.43 1022.35 1022.85 1023.02 1023.14 1023.37 1023.34 1023.22 1023.12 1022.81 1022.42 1022.02 1021.56 1021.15 1020.58 1020.04 1019.44 1018.83 1018.42 1017.98 1017.49 1017.10 1016.66 1016.20 1016.04 1015.42
1012.27 1011.95 1011.94 1012.00 1011.58 1011.78 1011.80 1012.15 1012.16 1012.93 1013.66 1014.23 1015.05 1016.32 1017.22 1018.02 1019.27 1020.48 1021.69 1022.49 1022.88 1023.12 1023.39 1023.72 1023.62 1023.43 1023.28 1022.92 1022.57 1022.11 1021.59 1021.26 1020.77 1020.24 1019.76 1019.43 1019.00 1018.50 1018.11 1017.66 1017.17 1016.65 1016.45 1015.97
Wind_Speed
3 5 3 5 6 3 4 3 0 3 0 3 5 3 8 6 4 7 7 7 7 9 5 4 4 7 7 7 7 8 6 7 4 3 2 2 3 3 4 4 5 5 4 5
6 3 6 5 4 3 2 3 0 3 4 4 5 2 3 6 7 9 12 9 9 6 7 4 6 6 8 8 9 8 8 7 4 2 3 3 2 3 3 4 5 5 5 5
5 3 3 4 4 6 2 5 3 3 4 4 3 5 4 1 2 3 7 9 6 10 8 6 7 9 8 8 8 7 7 7 4 3 2 3 2 3 3 4 4 4 9 11
3 4 3 3 3 4 3 3 2 2 4 3 3 5 5 4 7 1 4 8 7 6 6 7 7 7 5 6 5 5 3 2 2 4 1 2 2 3 3 4 7 9 11 12
6 1 2 2 3 4 5 4 3 2 4 3 3 4 8 4 3 2 6 7 6 6 8 8 7 5 2 4 5 4 5 7 5 5 4 3 5 4 5 8 12 12 12 12
4 2 3 6 3 2 7 6 8 5 3 2 3 5 6 4 6 3 3 5 6 5 6 5 4 3 5 6 6 6 7 5 6 6 7 6 7 11 12 13 12 11 10 10
2 2 3 3 5 3 6 7 4 5 5 6 3 2 9 5 6 7 8 8 7 6 5 5 1 5 6 7 7 6 7 6 7 7 7 8 11 13 13 13 12 14 11 11
5 5 6 3 6 8 3 8 8 6 3 5 2 5 6 3 6 5 6 6 4 3 3 2 7 6 6 6 7 6 7 8 9 9 10 10 11 8 9 12 12 11 12 12
6 5 1 3 3 7 4 3 4 8 3 2 3 6 7 2 2 3 6 4 4 4 4 6 6 6 6 7 7 7 8 10 10 11 11 11 10 11 12 14 13 11 13 13
8 2 0 2 5 6 4 7 4 3 2 4 5 5 6 5 8 7 7 6 6 2 6 5 6 6 6 6 6 5 6 8 10 10 10 11 12 14 15 14 16 16 15 16
6 5 4 1 4 9 2 1 6 5 5 6 1 7 7 10 11 11 9 6 4 6 5 5 6 6 5 4 6 8 8 9 11 12 13 16 15 14 15 14 14 15 16 16
5 6 4 7 4 1 3 6 6 7 5 2 5 9 3 7 4 3 2 5 4 6 6 6 5 4 5 8 8 8 10 11 12 15 16 16 15 14 14 14 16 16 16 15
9 1 4 7 6 2 3 4 5 5 4 7 7 8 2 5 2 2 7 6 5 6 6 5 6 8 9 8 9 11 11 15 15 15 16 15 14 15 15 16 16 15 15 15
9 4 9 11 8 5 4 4 5 6 5 5 7 5 6 1 4 4 6 5 6 6 6 6 6 7 6 7 10 12 14 14 15 14 14 14 15 15 15 15 15 14 14 14
5 6 4 2 4 5 4 5 6 5 4 5 6 6 7 3 6 5 5 6 6 6 7 6 6 5 6 10 12 13 14 14 13 13 13 14 14 15 15 14 13 13 13 13
2 4 4 3 3 4 3 6 7 6 4 5 4 5 1 2 5 4 5 7 6 6 5 5 5 8 11 14 13 13 13 13 13 13 13 13 14 14 14 14 14 13 13 13
6 7 4 4 4 4 5 9 5 3 2 4 6 7 6 4 6 3 4 6 6 5 4 6 9 9 12 13 11 12 13 12 12 12 13 13 13 13 14 14 13 13 13 13
3 7 3 4 4 5 5 3 5 9 2 1 4 6 6 6 5 7 5 6 6 5 6 8 7 10 12 10 11 12 11 12 12 11 12 12 13 13 13 13 13 13 11 12
3 3 4 6 4 4 3 4 6 6 2 1 7 8 5 5 4 6 6 7 6 5 6 6 7 10 9 11 11 10 10 11 11 12 12 12 12 12 13 13 13 12 11 12
6 3 6 3 6 8 7 5 6 6 2 6 6 8 8 5 1 3 5 5 6 7 7 7 9 8 8 9 9 9 10 10 11 12 12 11 11 11 12 12 12 11 10 10
3 4 4 4 3 6 5 4 3 6 8 8 8 6 7 5 3 6 8 7 7 7 7 8 7 7 7 8 9 10 11 11 11 11 11 10 10 10 10 11 10 12 10 10
2 1 1 2 4 5 5 5 8 7 3 8 6 6 6 7 9 8 8 6 7 7 7 7 6 8 7 8 8 10 11 10 10 10 11 11 11 8 9 11 10 12 11 9
4 6 3 5 5 4 5 1 2 4 10 5 7 5 8 11 6 7 6 6 7 7 5 5 8 6 8 9 9 10 10 10 10 11 11 10 10 9 10 10 11 10 9 8
3 5 3 4 6 6 3 3 2 6 7 7 6 8 8 9 9 8 7 6 6 5 4 6 8 9 9 9 8 7 7 8 7 8 10 9 10 12 10 7 7 8 9 8
5 9 4 2 4 3 1 1 7 6 8 9 7 6 8 12 8 8 7 7 7 5 4 5 6 6 6 5 6 6 7 7 8 8 8 10 8 8 7 6 8 7 9 9
3 6 5 6 9 4 4 6 8 9 8 9 11 6 6 7 9 9 8 7 7 5 3 3 3 4 4 4 5 7 7 7 7 8 8 7 6 5 5 5 5 7 13 20
Wind_Direction
11 62 227 221 195 149 145 118 310 280 201 138 206 184 172 183 181 192 198 194 201 219 247 232 181 213 228 249 248 246 247 247 223 231 257 274 252 274 283 272 283 285 277 280
25 226 223 197 138 155 134 115 353 294 354 138 182 206 62 158 206 206 192 189 201 223 249 246 216 221 224 233 234 252 244 254 236 193 225 236 250 270 262 280 293 296 295 294
162 236 121 148 121 99 58 133 159 183 349 44 60 338 346 293 334 279 218 185 187 212 229 263 243 231 233 234 237 256 255 251 247 241 329 321 306 306 317 301 299 300 310 301
211 288 141 128 152 126 153 188 120 96 80 213 46 260 295 318 314 317 186 164 193 228 232 235 238 238 226 249 257 274 304 266 14 31 357 321 279 282 270 286 289 289 287 286
247 126 123 140 199 140 205 90 62 70 90 72 0 79 269 320 294 179 152 161 187 234 223 224 229 245 215 353 348 13 74 51 36 34 29 355 319 283 290 293 294 288 291 285
216 313 167 197 84 90 144 78 46 49 76 30 219 134 275 207 213 202 192 205 218 221 221 239 217 73 27 43 51 53 66 46 25 18 4 350 319 309 307 304 299 297 298 296
337 286 313 128 102 51 74 61 347 354 10 222 180 89 240 234 232 193 194 201 210 211 228 254 282 52 59 55 43 49 37 21 8 1 343 325 309 305 300 302 301 302 300 295
150 311 181 184 174 180 151 145 152 201 207 260 295 231 254 249 275 208 194 180 164 221 260 33 58 65 74 57 48 33 19 6 353 338 325 316 306 299 300 302 301 295 291 293
144 267 253 193 138 128 178 151 162 103 15 42 268 298 318 215 221 226 203 206 200 274 60 87 82 81 66 55 39 28 10 346 335 328 317 314 314 309 302 297 296 297 296 297
205 104 272 146 109 39 139 151 78 19 146 261 299 282 236 243 231 230 239 214 235 77 101 99 89 68 48 43 24 5 350 329 316 320 321 319 313 316 315 316 310 302 299 298
137 118 273 120 195 168 98 117 57 114 129 165 227 264 216 210 213 210 227 188 221 121 117 100 77 59 54 32 10 352 338 337 339 331 327 328 323 321 319 310 304 299 298 296
186 135 167 196 316 99 143 172 142 127 223 177 148 273 294 253 278 183 191 198 117 124 110 88 71 60 27 15 356 345 350 345 339 336 331 326 324 320 314 310 306 304 303 303
184 265 75 356 353 335 184 175 123 108 81 188 139 258 326 347 91 104 144 137 113 115 94 73 43 28 14 355 347 354 348 343 338 334 331 329 320 318 315 311 310 315 312 313
95 122 156 188 201 150 161 168 145 131 127 174 218 272 292 268 102 120 112 114 107 90 77 50 28 14 352 348 357 347 342 340 337 331 328 322 321 319 317 318 320 320 322 320
125 155 148 195 172 133 149 168 168 178 172 152 244 197 277 229 162 159 140 104 93 75 54 39 17 347 346 357 351 346 341 337 332 329 324 325 327 325 323 324 325 327 328 327
40 166 142 150 170 135 202 239 206 203 202 241 250 247 172 123 117 111 103 105 93 79 54 25 356 4 3 355 345 335 332 329 331 326 331 332 330 329 331 332 335 334 335 337
140 135 108 222 150 106 311 228 198 141 102 138 181 214 162 118 119 109 96 95 101 89 53 19 16 9 356 344 333 331 326 331 330 336 334 332 333 333 337 337 339 343 342 341
164 110 100 139 113 221 245 349 141 120 106 208 99 119 143 139 95 54 24 121 96 69 39 25 14 360 347 336 335 328 333 328 338 339 337 335 337 339 340 340 344 346 345 350
185 125 107 143 183 294 133 189 153 135 189 251 136 137 139 143 104 44 45 68 85 79 62 46 14 349 344 345 335 330 338 345 345 344 339 338 339 342 342 347 349 348 352 359
0 21 111 189 162 201 226 179 143 110 297 201 146 149 162 127 78 234 130 96 81 66 56 30 6 356 352 336 326 331 345 351 350 343 338 334 344 343 345 346 349 350 1 360
338 336 159 168 160 284 240 138 142 104 236 152 158 161 134 158 185 129 113 83 76 66 44 19 6 351 337 324 334 358 360 2 349 338 340 345 354 348 348 352 354 352 352 357
182 46 331 10 85 255 173 101 158 201 41 127 135 143 115 115 115 114 108 93 78 61 32 15 4 8 347 341 347 10 10 359 350 352 358 358 354 353 357 4 359 356 355 1
198 186 175 197 224 283 280 234 105 146 134 144 130 139 126 130 133 131 120 101 86 64 34 5 19 2 4 18 20 14 7 3 1 9 2 352 352 356 6 5 357 356 2 3
254 155 186 143 244 245 238 62 86 126 117 129 125 131 137 135 140 121 120 108 92 70 45 31 30 30 32 23 27 19 360 348 355 358 349 352 358 355 9 11 7 11 6 13
208 143 199 227 305 351 11 119 146 108 107 103 89 132 140 130 127 133 126 115 105 94 59 53 44 52 45 21 8 351 347 347 353 349 347 350 358 2 358 13 34 39 35 35
199 177 158 217 204 183 183 187 137 130 138 136 126 106 88 117 131 124 118 122 119 121 100 73 48 52 18 360 344 337 335 338 342 347 348 347 348 353 354 3 5 32 50 47